Home   Weather   Montpelier   Past weeks

Flag for USA Past Weather in Montpelier, Vermont, USA — Yesterday and Last 2 Weeks

Now
44 °F

Overcast.


Feels Like: 42 °F
Forecast: 45 / 62 °F
Wind: 5 mph from Northeast

Location: Knapp State Airport

Current Time: Apr 30, 2017 at 8:51:56 pm

Latest Report: Apr 30, 2017 at 7:51 pm


Visibility: 10 mi

Pressure: 30.25 "Hg

Humidity: 73%

Dew Point: 36 °F

Location of MontpelierLocation

Past Weather in Montpelier — Graph

°F

Montpelier Temperature Yesterday

Maximum temperature yesterday: 69 °F (at 1:51 pm)
Minimum temperature yesterday: 43 °F (at 11:51 pm)
Average temperature yesterday: 62 °F

High & Low Weather Summary for the Past Weeks

 TemperatureHumidityPressure
High78 °F (Apr 16, 3:51 pm)100% (Apr 15, 10:14 pm)30.55 "Hg (Apr 15, 10:14 pm)
Low33 °F (Apr 25, 5:51 am)19% (Apr 28, 8:51 pm)29.60 "Hg (Apr 16, 4:51 pm)
Average49 °F77%30.08 "Hg
* Reported Apr 15 6:51 pm — Apr 30 6:51 pm, Montpelier, Weather by CustomWeather, © 2017

Note: Actual official high and low records may vary slightly from our data, if they occured in-between our weather recording intervals... More about our weather records

Advertising

Montpelier Weather History for the Previous 24 Hours

Scroll right to see more
 ConditionsComfort  
Time TempWeatherWind HumidityBarometerVisibility
6:51 pm
Sun, Apr 30
47 °FLight rain. Overcast.5 mph66%30.27 "Hg10 mi
5:51 pm47 °FOvercast.3 mph59%30.28 "Hg10 mi
4:51 pm47 °FOvercast.8 mph59%30.26 "Hg10 mi
3:51 pm46 °FOvercast.9 mph58%30.28 "Hg10 mi
2:51 pm47 °FOvercast.7 mph54%30.30 "Hg10 mi
1:51 pm45 °FOvercast.5 mph53%30.33 "Hg10 mi
12:51 pm43 °FLight rain. Overcast.No wind53%30.33 "Hg10 mi
11:51 am42 °FOvercast.3 mph53%30.40 "Hg10 mi
10:51 am41 °FBroken clouds.8 mph53%30.35 "Hg10 mi
9:51 am41 °FSunny.No wind53%30.35 "Hg10 mi
8:51 am40 °FSunny.10 mph55%30.35 "Hg10 mi
7:51 am37 °FSunny.9 mph60%30.34 "Hg10 mi
6:51 am36 °FSunny.7 mph64%30.35 "Hg10 mi
5:51 am34 °FSunny.6 mph67%30.32 "Hg10 mi
4:51 am33 °FClear.No wind70%30.31 "Hg10 mi
3:51 am35 °FClear.5 mph64%30.31 "Hg10 mi
2:51 am37 °FClear.9 mph60%30.28 "Hg10 mi
1:51 am38 °FClear.8 mph58%30.29 "Hg10 mi
12:51 am40 °FClear.9 mph55%30.23 "Hg10 mi
11:51 pm
Sat, Apr 29
43 °FClear.12 mph53%30.19 "Hg10 mi
10:51 pm47 °FClear.10 mph54%30.16 "Hg10 mi
9:51 pm51 °FPassing clouds.13 mph46%30.11 "Hg10 mi
8:51 pm55 °FPassing clouds.9 mph42%30.07 "Hg10 mi
Weather by CustomWeather, © 2017

See weather overviewHow to use our weather pages